Location: Waco, TX
(31.5480°N, 97.1670°W)
Time: 12:00:54
(UTC-05:00)

ISS - Pass Details

Date: 19 August 2018
Orbit: 401 x 409 km, 51.6° (Epoch: 19 August)

Event Time Altitude Azimuth Distance (km) Brightness Sun altitude
Rises 16:15:21 0° 334° (NNW) 2,314 0.1 48.0°
Reaches altitude 10° 16:18:28 10° 7° (N) 1,453 -1.1 47.4°
Maximum altitude 16:19:52 12° 32° (NNE) 1,327 -1.4 47.1°
Drops below altitude 10° 16:21:17 10° 58° (ENE) 1,453 -1.3 46.8°
Sets 16:24:23 0° 91° (E) 2,310 -0.4 46.2°
